Location: Sobotiste
(48.7170°N, 17.4000°E)
Time: 17:00:54
(UTC+01:00)

ISS - Visible Passes

Search period start: 22 January 2026 00:00
Search period end: 01 February 2026 00:00
Orbit: 413 x 423 km, 51.6° (Epoch: 22 January)

Date Brightness Start Highest point End Pass type
(mag) Time Alt. Az. Time Alt. Az. Time Alt. Az.
22 Jan -3.4 17:54:43 10° WNW 17:57:59 49° N 17:59:23 28° ENE visible
22 Jan -0.7 19:31:35 10° WNW 19:32:19 16° WNW 19:32:19 16° WNW visible
23 Jan -3.3 17:06:40 10° WNW 17:09:55 49° N 17:13:11 10° ENE visible
23 Jan -3.3 18:43:35 10° WNW 18:46:23 58° NW 18:46:23 58° NW visible
24 Jan -3.7 17:55:33 10° WNW 17:58:53 62° NNE 18:00:28 27° E visible
24 Jan -0.8 19:32:25 10° WNW 19:33:25 17° W 19:33:25 17° W visible
25 Jan -3.5 17:07:29 10° WNW 17:10:46 53° N 17:14:04 10° E visible
25 Jan -3.3 18:44:18 10° WNW 18:47:33 58° SSW 18:47:33 58° SSW visible
26 Jan -3.8 17:56:13 10° WNW 17:59:33 82° SSW 18:01:47 19° ESE visible
26 Jan -0.8 19:33:34 10° W 19:34:45 15° WSW 19:34:45 15° WSW visible
27 Jan -3.8 17:08:05 10° WNW 17:11:26 76° NNE 17:14:47 10° ESE visible
27 Jan -1.9 18:45:06 10° W 18:47:59 27° SW 18:49:06 22° S visible
28 Jan -2.5 17:56:48 10° WNW 17:59:58 40° SSW 18:03:07 10° SE visible
29 Jan -0.7 18:46:38 10° WSW 18:48:04 12° SW 18:49:30 10° SSW visible
30 Jan -1.0 17:57:39 10° W 18:00:05 19° SW 18:02:31 10° S visible
